TimeMDT,TemperatureF,Dew PointF,Humidity,Sea Level PressureIn,VisibilityMPH,Wind Direction,Wind SpeedMPH,Gust SpeedMPH,PrecipitationIn,Events,Conditions,WindDirDegrees,DateUTC
12:53 AM,39.9,37.9,93,30.20,10.0,South,4.6,-,N/A,,Clear,190,2013-05-05 06:53:00
1:53 AM,39.9,37.9,93,30.19,10.0,South,5.8,-,N/A,,Clear,190,2013-05-05 07:53:00
2:53 AM,37.9,37.0,97,30.21,10.0,South,3.5,-,N/A,,Clear,190,2013-05-05 08:53:00
3:53 AM,37.9,37.0,97,30.20,10.0,SSE,3.5,-,N/A,,Clear,160,2013-05-05 09:53:00
4:53 AM,37.9,37.0,97,30.19,10.0,SSE,3.5,-,N/A,,Clear,150,2013-05-05 10:53:00
5:53 AM,36.0,35.1,97,30.19,7.0,SW,3.5,-,N/A,,Clear,230,2013-05-05 11:53:00
6:53 AM,37.9,37.0,97,30.20,10.0,South,6.9,-,N/A,,Clear,170,2013-05-05 12:53:00
7:53 AM,42.1,39.0,89,30.20,10.0,SW,4.6,-,N/A,,Partly Cloudy,220,2013-05-05 13:53:00
8:53 AM,45.0,42.1,90,30.21,10.0,Calm,Calm,-,N/A,,Partly Cloudy,0,2013-05-05 14:53:00
9:53 AM,48.9,42.1,77,30.19,10.0,Calm,Calm,-,N/A,,Clear,0,2013-05-05 15:53:00
10:53 AM,51.1,39.0,63,30.16,10.0,Calm,Calm,-,N/A,,Partly Cloudy,0,2013-05-05 16:53:00
12:53 PM,57.0,35.1,44,30.12,10.0,SW,8.1,-,N/A,,Mostly Cloudy,230,2013-05-05 18:53:00
1:53 PM,59.0,33.1,38,30.09,10.0,SSW,4.6,-,N/A,,Partly Cloudy,210,2013-05-05 19:53:00
2:53 PM,60.1,33.1,36,30.08,10.0,Calm,Calm,-,N/A,,Mostly Cloudy,0,2013-05-05 20:53:00
3:53 PM,63.0,32.0,31,30.05,10.0,West,5.8,-,N/A,,Scattered Clouds,280,2013-05-05 21:53:00
4:53 PM,62.1,32.0,32,30.04,10.0,Calm,Calm,-,N/A,,Mostly Cloudy,0,2013-05-05 22:53:00
5:53 PM,62.1,30.9,31,30.04,10.0,Calm,Calm,-,N/A,,Mostly Cloudy,0,2013-05-05 23:53:00
6:53 PM,62.1,30.0,30,30.01,10.0,Calm,Calm,-,N/A,,Scattered Clouds,0,2013-05-06 00:53:00
7:53 PM,60.1,37.0,42,30.01,10.0,Calm,Calm,-,N/A,,Mostly Cloudy,0,2013-05-06 01:53:00
8:53 PM,53.1,42.1,66,30.03,10.0,ESE,5.8,-,N/A,,Overcast,110,2013-05-06 02:53:00
9:53 PM,50.0,37.9,63,30.02,10.0,ESE,3.5,-,N/A,,Partly Cloudy,120,2013-05-06 03:53:00
10:53 PM,51.1,35.1,54,30.01,10.0,SE,10.4,-,N/A,,Clear,130,2013-05-06 04:53:00
11:53 PM,50.0,35.1,57,29.99,10.0,ESE,10.4,-,N/A,,Clear,120,2013-05-06 05:53:00